User: anonymous   Login
Location: Unspecified
(0.0000°N, 0.0000°E)
Time: 20:11:36
(UTC+01:00)
Language:

Cosmos 1437 - Orbit

View from above orbital plane
View from above orbital plane
View from above satellite
View from above satellite

Ground track
Ground track

The orbit data is extracted from the following two-line orbital elements,

1 13770U 83003A   15031.22122519  .00015177  00000-0  42999-3 0  7632
2 13770 081.1651 123.8514 0009232 058.2422 001.2178 15.36102868752514
Epoch (UTC): 31 January 2015 05:18:33
Eccentricity: 0.0009232
inclination: 81.1651°
perigee height: 451 km
apogee height: 464 km
right ascension of ascending node: 123.8514°
argument of perigee: 58.2422°
revolutions per day: 15.36102868
mean anomaly at epoch: 1.2178°
orbit number at epoch: 75251

The dashed part of the orbit path shows where the satellite is in the earth's shadow,  

DLR